www.pogodaiklimat.ru

Погода и климат >> Архив погоды >> Россия >> Ульяновская область >> Ульяновск


АРХИВ ПОГОДЫ в Ульяновске

Время (UTC), дата Ветер
(напр.,м/с)
 
Видим.   Явления Облачность Т
(С)
Тd
(С)
f
(%)
Тe
(С)
Тes
(С)
Комфортность P
(гПа)
Po
(гПа)
Тmin
(С)
Tmax
(С)
R
(мм)
R24
(мм)
S
(см)
12 13.08 СЗ 5
{14}
10 км 4/0
[Ac trans]
+19.3 -0.3 27 +19 +22 1013.4 998.3
15 13.08 СЗ 3
{12}
10 км 4/0
[Ci fib]
+18.7 +1.2 31 +19 +19 1014.2 999.0 +19.5
18 13.08 СЗ 1 10 км 3/0
[Ci fib]
+10.9 +4.6 65 +11 +11 1015.6 1000.0
21 13.08 З 2 10 км ясно +7.7 +4.2 78 +6 +6 1015.5 999.7
00 14.08 СЗ 1 10 км ясно +5.5 +3.4 86 +4 +4 1015.4 999.5
03 14.08 ЮЗ 1 10 км 8/0
[Ac trans Ci]
+7.0 +4.3 83 +6 +7 1016.2 1000.4 +5.1
06 14.08 З 3 10 км 9/0
[Ac trans Ci]
+16.9 +5.3 46 +17 +21 1015.1 999.9
09 14.08 ЮВ 1 10 км 9/0
[Ac trans Ci]
+21.2 +5.7 36 +22 +30 комфорт 1013.4 998.4
12 14.08 В 2 10 км 6/0
[Ac trans Ci]
+20.5 +5.8 38 +22 +27 комфорт 1013.0 998.0
15 14.08 ЮВ 1 10 км 9/5 1500 м
[Sc Ac trans]
+19.4 +7.6 46 +21 +21 комфорт 1013.6 998.5 +21.7
18 14.08 штиль 0 10 км 9/0
[Ac trans]
+17.1 +8.9 58 +17 +17 1014.6 999.3
21 14.08 штиль 0 10 км 8/0
[Ac trans]
+15.5 +11.3 76 +15 +15 1014.7 999.4
00 15.08 штиль 0 10 км 9/0
[Ac trans]
+13.9 +10.7 81 +14 +14 1015.3 999.9
03 15.08 штиль 0 10 км 8/0
[Ac trans]
+15.0 +10.3 73 +15 +15 1016.2 1000.9 +13.6
06 15.08 Ю 1 10 км 3/0
[Ci fib]
+22.1 +9.2 44 +24 +33 комфорт 1016.2 1001.2
09 15.08 ЮВ 3 10 км ясно +24.5 +12.5 47 +26 +37 жарко 1015.6 1000.7
12 15.08 ЮВ 3 10 км ясно +25.6 +14.0 49 +28 +34 жарко 1014.6 999.8
15 15.08 ЮВ 1 10 км ясно +25.7 +15.8 54 +29 +29 душно 1013.9 999.2 +26.5
18 15.08 Ю 1 10 км 3/0
[Ci fib]
+20.2 +14.3 69 +24 +24 комфорт 1014.7 999.7
21 15.08 Ю 2 10 км 3/0
[Ac trans]
+18.7 +14.1 75 +20 +20 1015.1 999.9
00 16.08 Ю 1 10 км ясно +17.7 +13.7 77 +19 +19 1015.0 999.8
03 16.08 Ю 1 10 км 8/4 1500 м
[Sc Ci fib]
+18.9 +13.7 72 +21 +22 комфорт 1014.9 999.8 +17.2
06 16.08 Ю 2 10 км 9/4 1500 м
[Sc Ci fib]
+24.6 +15.0 55 +27 +31 жарко 1014.2 999.4
09 16.08 ЮЗ 2 10 км 8/0
[Ci fib]
+30.3 +13.2 35 +32 +42 жарко 1013.2 998.6
12 16.08 С 2 10 км 9/3 1500 м
[Sc Ci fib]
+26.7 +17.7 58 +31 +35 душно 1013.7 999.0
15 16.08 СВ 1 10 км 8/0
[Ac trans Ci fib]
+23.8 +17.5 68 +28 +28 душно 1013.3 998.5 +31.1
18 16.08 штиль 0 10 км 8/0
[Ac trans Ci fib]
+19.5 +17.8 90 +22 +22 комфорт 1013.4 998.4
21 16.08 штиль 0 10 км 8/0
[Ac trans Ci fib]
+18.6 +17.2 92 +19 +19 1013.2 998.1
00 17.08 ЮВ 1 10 км 8/0
[Ac trans Ci]
+17.6 +15.8 89 +19 +19 1013.0 997.8
03 17.08 З 1 10 км {гроза, ливн. осадки} 10/4 1500 м
[Cb calv Ac und]
+19.4 +16.2 82 +22 +23 комфорт 1013.8 998.7 +17.6 0.0
06 17.08 штиль 0 10 км {гроза, ливн. осадки} 8/3 1500 м
[Sc Ac trans]
+22.5 +17.2 72 +27 +32 душно 1014.3 999.4
09 17.08 ЮВ 2 10 км {ливн. осадки} 8/4 1500 м
[Sc Ac trans]
+22.8 +17.3 71 +28 +32 душно 1014.9 1000.0
12 17.08 ЮВ 1 10 км слаб. ливневой дождь 8/6 1500 м
[Cb calv Ac trans]
+24.0 +17.5 67 +28 +30 душно 1014.7 999.9
15 17.08 штиль 0 10 км {ливн. осадки} 9/4 1500 м
[Cb calv Ac trans]
+22.5 +18.2 77 +28 +28 душно 1014.5 999.6 +24.3 0.0
18 17.08 СВ 1 10 км {ливн. осадки} 6/4 1000 м
[Sc Ac trans]
+19.0 +17.8 93 +22 +22 комфорт 1014.6 999.5
21 17.08 штиль 0 4000 м дымка 9/4 1000 м
[Sc Ac trans]
+18.2 +17.3 94 +19 +19 1013.8 998.7
00 18.08 ЮВ 1 10 км 9/4 1000 м
[Cb calv Ac trans]
+18.9 +17.4 91 +21 +21 комфорт 1013.4 998.3
03 18.08 Ю 1 10 км 8/3 1000 м
[Cb calv Ac trans]
+20.1 +14.0 68 +23 +24 комфорт 1014.1 999.0 +18.0
06 18.08 Ю 1 10 км слаб. ливневой дождь 10/6 1440 м
[Cb calv Ac und]
+19.7 +15.7 78 +23 +24 комфорт 1013.9 998.9
09 18.08 ЮВ 3 10 км 8/3 1500 м
[Sc Ac trans]
+24.8 +14.5 53 +27 +32 жарко 1014.4 999.6
12 18.08 Ю 3
{11}
10 км 8/0
[Ac trans Ci fib]
+26.9 +10.2 35 +27 +31 жарко 1015.1 1000.4
15 18.08 В 1
{10}
10 км слаб. ливневой дождь 10/5 1470 м
[Cb calv Ac und]
+22.0 +15.8 68 +26 +26 душно 1016.0 1001.0 +29.0 0.3
18 18.08 В 1 10 км {ливн. осадки} 8/4 1500 м
[Cb calv Ac trans]
+19.4 +14.7 74 +22 +22 комфорт 1017.2 1002.1
21 18.08 штиль 0 10 км 6/3 1500 м
[Sc Ac trans]
+17.6 +14.8 84 +18 +18 1017.2 1002.0
00 19.08 Ю 2 10 км в посл. час ливневой дождь 8/6 1320 м
[Cb calv Ac trans]
+19.6 +12.0 61 +22 +22 комфорт 1018.3 1003.2
03 19.08 ЮВ 1 10 км {ливн. осадки} 9/6 1470 м
[Sc Ac trans]
+19.3 +14.0 71 +22 +22 комфорт 1017.7 1002.6 +17.3 0.0
06 19.08 В 1 10 км {ливн. осадки} 9/0
[Ac trans]
+22.4 +15.1 63 +26 +30 жарко 1018.0 1003.0
09 19.08 Ю 3 10 км 8/0
[Ac trans Ci fib]
+29.6 +13.0 36 +31 +38 жарко 1017.4 1002.8
12 19.08 ЮЗ 2 10 км 8/3 1500 м
[Sc Ac trans Ci fib]
+30.4 +11.7 32 +31 +34 жарко 1017.2 1002.6
15 19.08 Ю 1 10 км 8/3 1500 м
[Sc Ci fib]
+27.7 +13.4 41 +29 +30 жарко 1016.9 1002.2 +31.5
18 19.08 ЮВ 1 10 км 8/0
[Ac trans Ci]
+21.4 +13.3 60 +24 +24 комфорт 1017.3 1002.3
21 19.08 СЗ 3 10 км 10/0
[Ac und]
+21.5 +15.4 68 +25 +25 комфорт 1018.0 1003.0
00 20.08 СЗ 3 10 км 3/0
[Ac trans]
+18.4 +16.0 86 +19 +19 1018.6 1003.4
03 20.08 СЗ 1 10 км 4/0
[Ac trans Ci fib]
+18.8 +15.7 82 +21 +22 комфорт 1019.7 1004.5 +17.2
06 20.08 С 1 10 км ясно +23.5 +15.2 60 +26 +35 жарко 1020.2 1005.3
09 20.08 СЗ 1 10 км ясно +26.0 +15.1 51 +29 +43 душно 1019.9 1005.1

 

Местоположение метеостанции Ульяновск (Ульяновская область, Россия): широта 54.27 долгота 48.23 высота над уровнем моря 129 м.

В архиве по умолчанию представлена погода в Ульяновске за последнюю неделю. Архивные данные за месяц целиком и за предыдущие месяцы, начиная с января 2011 года, Вы можете получить, выбрав интересующий диапазон дат из раскрывающегося списка и нажав кнопку "Ввод!".


*Определитесь, кто Вы:
робот инопланетянин человек

Внимание! Время в таблицах - всемирное. Для получения местного времени необходимо прибавить поправку, которая равна 4 ч.

Смотрите также архив погоды в соседних городах и на ближайших метеорологических станциях:

Погода в Сенгилее (Ульяновская область, Россия) (50 км)
Погода в Дрожжаном (Татарстан, Россия) (66 км)
Погода в Тетюшах (Татарстан, Россия) (84 км)
Погода в Новодевичьем (Самарская область, Россия) (84 км)
Погода в Димитровграде (Ульяновская область, Россия) (89 км)
Погода в Батырево (Чувашия, Россия) (98 км)
Погода в Сурском (Ульяновская область, Россия) (102 км)
Погода в Тольятти (Самарская область, Россия) (108 км)
Погода в Тольятти (дамба) (Самарская область, Россия) (121 км)
Погода в Сызрани (Самарская область, Россия) (122 км)

Пояснения к столбцам:

Ветер - указаны скорость ветра в м/с - средняя за 10 мин, порывы в срок и между сроками (в фигурных скобках) и направление, откуда дует ветер: С - северный, СВ - северо-восточный, В - восточный, ЮВ - юго-восточный, Ю - южный, ЮЗ - юго-западный, З - западный, СЗ - северо-западный.
Видимость - горизонтальная дальность видимости в метрах или километрах. При видимости от 1 до 10 км при отсутствии осадков обычно наблюдается дымка, при ухудшении видимости до 1 км и менее - туман. В сухую погоду видимость может ухудшаться дымом, пылью или мглою.
Явления - указаны атмосферные явления, наблюдавшиеся в срок или в последний час перед сроком; фигурными скобками обозначены явления, наблюдавшиеся между сроками (за 1-3 часа до срока); квадратными скобками обозначены град или гололедные отложения с указанием их диаметра в мм.
Облачность - указаны через наклонную черту общая и нижняя облачность в баллах и высота нижней границы облаков в метрах; квадратными скобками обозначены формы облаков: Ci - перистые, Cs - перисто-слоистые, Cc - перисто-кучевые, Ac - высококучевые, As - высокослоистые, Sc - слоисто-кучевые, Ns - слоисто-дождевые, Cu - кучевые, Cb - кучево-дождевые. Подробнее классификацию облаков см. в Атласе облаков (PDF).
T - Температура воздуха - температура, измеренная на высоте 2 м над землей.
Td - Температура точки росы - температура, при понижении до которой содержащийся в воздухе водяной пар достигнет насыщения.
f - Относительная влажность воздуха - влажноcть воздуха, измеренная на высоте 2 м над землей.
Te - Эффективная температура - температура, которую ощущает одетый по сезону человек в тени. Характеристика душности погоды. При расчете учитывается влияние влажности воздуха и скорости ветра на теплоощущения человека.
Tes - Эффективная температура на солнце - температура, которую ощущает человек, с поправкой на солнечный нагрев. Характеристика знойности погоды. Зависит от высоты солнца над горизонтом, облачности и скорости ветра. Ночью, в пасмурную погоду, а также при ветре 12 м/с и более поправка равна нулю.
P - Атмосферное давление - приведенное к уровню моря атмосферное давление.
Po - Атмосферное давление - измеренное на уровне метеостанции атмосферное давление.
Tmin - Минимальная температура - минимум температуры воздуха на высоте 2 м над землей.
Tmax - Максимальная температура - максимум температуры воздуха на высоте 2 м над землей.
R - Количество осадков - Количество выпавших осадков за период времени, мм. При наведении курсора мыши на число - период времени, за который выпало указанное количество осадков.
R24 - Количество осадков - Количество выпавших осадков за 24 часа, мм.
S - Снежный покров - Высота снежного покрова, см. При наведении курсора мыши на число - состояние снежного покрова и степень покрытия местности в баллах.